ECMWFNIL_con_mucape_000.txt.gz
CAPE
36 4 23 5 0 0 0 0 0 0 0 0 0 0 0 0 0 0 0 0 0 0 0 0 0 0 0 0 0 0 0 0 0 0 0 0 0 0 0 0 0 0
45 23 9 2 0 0 0 0 0 0 0 0 0 0 0 0 0 0 0 0 0 0 0 0 0 0 0 0 0 0 0 0 0 0 0 0 0 0 0 0 0 0
49 54 20 2 0 0 0 0 0 0 0 0 0 0 0 0 0 0 0 0 0 0 0 0 0 0 0 0 0 0 0 0 0 0 0 0 0 0 0 0 0 0
46 12 10 3 0 0 0 0 0 0 0 0 0 0 0 0 0 0 0 0 0 0 0 0 0 0 0 0 0 0 0 0 0 0 0 0 0 0 0 0 0 0
74 33 0 0 0 0 0 0 0 0 0 0 0 0 0 0 0 0 0 0 0 0 0 0 0 0 0 0 0 0 0 0 0 0 0 0 0 0 0 0 0 0
93 61 7 0 0 0 0 2 0 0 0 0 0 0 0 0 0 0 0 0 0 0 0 0 0 0 0 0 0 0 0 0 0 0 0 0 0 0 0 0 0 0
54 61 47 10 10 6 3 7 3 1 0 0 0 0 0 0 0 0 0 0 0 0 0 0 0 0 0 0 0 0 0 0 0 0 0 0 0 0 0 0 0 0
34 46 28 23 21 21 16 0 0 0 6 0 0 0 0 0 0 0 0 0 0 0 0 0 0 0 0 0 0 0 0 0 0 0 0 0 0 0 0 0 0 0
97 28 9 163 116 29 18 10 14 20 25 19 0 0 0 0 0 0 0 0 0 0 0 0 0 0 0 0 0 0 0 0 0 0 0 0 0 0 0 0 0 0
246 63 28 20 35 19 13 60 24 57 52 47 28 0 0 0 0 0 0 0 0 0 0 0 0 0 0 0 0 0 0 0 0 0 0 0 0 0 0 0 0 0
59 108 84 22 18 0 0 106 24 13 177 11 58 4 0 0 0 251 15 0 0 0 3 2 2 2 0 0 0 0 0 0 0 0 0 0 0 0 0 0 0 0
53 143 111 19 56 75 126 6 0 3 473 6 31 76 56 60 226 241 0 0 0 0 0 144 166 152 0 0 64 99 0 0 0 0 0 24 102 0 0 0 0 0
382 443 387 228 280 258 77 11 245 295 599 34 14 91 113 72 217 50 62 11 0 0 64 245 102 0 0 0 0 0 0 0 0 0 0 0 0 0 134 89 90 36
398 548 600 504 341 112 127 68 47 126 48 227 0 66 155 114 58 172 38 31 147 201 236 107 0 0 25 4 0 0 0 0 0 0 0 177 0 0 0 101 135 36
640 614 590 552 469 451 288 457 462 49 248 282 77 29 70 41 10 0 2 262 256 41 138 222 0 0 0 0 0 0 0 0 0 0 105 193 162 0 38 98 0 0
398 293 457 221 219 36 308 389 294 358 358 202 444 224 34 21 78 59 17 0 0 0 0 0 0 5 17 4 0 0 0 0 0 0 0 182 128 0 0 136 144 158
633 378 439 267 208 202 411 455 398 397 588 200 1 167 304 438 337 223 209 234 231 180 173 162 150 134 149 161 174 171 173 161 139 168 186 191 243 215 180 168 166 21
487 310 321 328 286 283 238 209 270 251 194 469 596 628 688 613 456 399 430 446 424 384 374 305 269 254 238 248 263 293 304 327 368 373 348 343 342 293 240 180 87 165
342 246 78 192 233 168 80 161 188 151 110 61 40 59 206 321 270 216 337 436 469 412 361 348 376 408 436 489 516 513 483 420 431 430 490 515 455 356 259 182 136 132
0 0 0 182 343 128 0 0 0 0 0 40 127 174 219 300 304 318 319 277 314 318 396 449 449 415 302 174 206 342 494 566 656 718 639 522 456 422 318 231 204 81
0 0 0 0 0 0 0 0 0 0 0 0 0 0 0 0 0 150 138 274 342 409 291 168 106 13 0 0 0 27 134 260 367 474 559 527 450 335 168 0 127 16
0 0 0 0 0 0 0 0 0 0 0 0 0 0 0 0 0 0 0 68 69 50 0 0 0 0 0 0 0 0 3 126 248 367 463 479 450 311 246 58 3 0
0 0 0 0 0 0 0 0 0 0 0 0 0 0 0 0 0 0 0 0 0 50 175 187 161 43 0 0 0 0 0 0 64 113 188 235 246 212 176 75 1 0
0 0 0 0 0 0 0 0 0 0 0 0 0 0 0 0 0 0 0 68 179 225 235 235 228 112 0 0 0 0 0 0 0 0 0 0 21 80 91 23 19 13
0 0 0 0 0 0 0 0 0 0 0 0 0 0 0 0 0 0 94 171 187 188 208 188 177 77 0 0 0 0 0 0 0 123 51 0 0 0 23 18 0 4
0 0 0 0 0 0 0 0 0 0 0 0 0 0 0 0 0 0 5 134 170 159 140 142 139 120 75 0 0 0 0 0 0 0 5 53 0 0 1 60 32 40

ECMWFNIL_con_mucape_003.txt.gz
CAPE
0 0 0 14 0 0 0 0 0 0 0 0 0 0 0 0 0 0 0 0 0 0 0 0 0 0 0 0 0 0 0 0 0 0 0 0 0 0 0 0 0 0
0 0 0 4 0 0 0 0 0 0 0 0 0 0 0 0 0 0 0 0 0 0 0 0 0 0 0 0 0 0 0 0 0 0 0 0 0 0 0 0 0 0
0 0 0 3 0 0 0 0 0 0 0 0 0 0 0 0 0 0 0 0 0 0 0 0 0 0 0 0 0 0 0 0 0 0 0 0 0 0 0 0 0 0
0 2 15 4 0 0 0 0 0 0 0 0 0 0 0 0 0 0 0 0 0 0 0 0 0 0 0 0 0 0 0 0 0 0 0 0 0 0 0 0 0 0
2 0 0 0 0 0 0 0 0 0 0 0 0 0 0 0 0 0 0 0 0 0 0 0 0 0 0 0 0 0 0 0 0 0 0 0 0 0 0 0 0 0
0 0 0 0 33 23 1 0 0 0 0 0 0 0 0 0 0 0 0 0 0 0 0 0 0 0 0 0 0 0 0 0 0 0 0 0 0 0 0 0 0 0
0 0 0 9 30 25 0 0 0 0 0 0 0 0 0 0 0 0 0 0 0 0 0 0 0 0 0 0 0 0 0 0 0 0 0 0 0 0 0 0 0 0
0 0 23 35 36 3 0 0 0 0 0 0 0 0 0 0 0 0 0 0 0 0 0 0 0 0 0 0 0 0 0 0 0 0 0 0 0 0 0 0 0 0
32 29 36 32 30 0 0 0 0 0 0 0 0 0 0 0 0 0 0 0 0 0 0 0 0 0 0 0 0 0 0 0 0 0 0 0 0 0 0 0 0 0
132 82 53 79 73 18 0 0 0 0 0 0 0 0 0 0 0 0 5 7 3 4 0 0 0 0 0 0 0 0 0 0 0 0 0 0 0 0 0 0 0 0
109 0 0 36 22 23 5 0 0 0 0 0 7 10 0 2 0 0 0 0 1 0 3 3 3 2 2 2 0 0 0 0 0 0 0 0 0 0 0 0 0 0
0 0 0 9 19 6 0 2 22 37 26 0 0 6 4 4 15 4 1 0 0 0 7 25 36 33 14 0 0 0 0 0 0 0 0 0 0 0 0 0 0 0
39 0 0 344 161 6 14 12 1 6 15 28 16 14 8 26 44 46 49 51 14 0 2 5 12 4 0 0 0 0 0 0 0 0 0 0 0 0 0 0 0 0
0 74 123 0 0 9 5 2 17 22 5 0 0 1 0 16 11 40 17 20 14 1 0 156 168 1 0 0 96 112 32 0 0 0 0 0 0 0 0 0 0 0
0 0 0 17 28 32 0 4 0 1 17 4 2 50 0 2 2 2 14 5 0 0 0 0 81 209 229 246 242 227 189 141 19 0 0 0 0 0 0 0 0 0
143 65 58 0 0 15 4 0 0 0 0 0 0 0 0 0 0 1 6 10 5 112 222 245 254 246 242 238 230 99 0 0 0 0 0 0 0 0 0 0 0 0
17 222 454 304 0 0 0 0 7 0 0 0 0 0 0 2 0 0 0 121 168 236 316 332 318 291 274 218 24 0 0 154 147 132 124 0 0 128 140 14 0 0
0 365 475 442 429 451 324 148 0 0 0 0 0 83 240 79 0 88 0 85 170 192 251 269 245 252 232 250 274 270 266 297 335 359 351 319 276 260 288 294 289 267
224 271 264 353 370 367 346 281 260 227 301 396 389 194 160 0 0 0 0 0 68 183 265 341 301 341 262 142 73 72 76 94 129 163 222 357 431 491 517 463 385 349
326 252 101 280 350 451 357 304 253 283 352 139 0 0 184 0 0 0 0 51 116 404 364 314 236 0 0 0 32 27 20 17 15 66 120 175 227 291 364 423 436 413
0 0 0 218 260 244 274 414 421 376 285 92 0 0 0 37 226 315 300 296 334 278 165 0 0 0 0 0 0 0 0 0 0 0 96 166 220 260 293 304 310 299
0 0 0 0 0 146 91 56 0 0 0 0 0 0 0 46 54 38 110 181 220 166 0 0 0 0 0 0 0 0 0 0 0 0 0 0 0 33 131 154 166 174
0 0 0 0 205 196 131 0 0 0 0 0 0 0 0 0 0 0 0 118 100 133 0 0 64 0 0 0 0 0 0 0 0 0 0 0 0 0 0 0 0 71
0 0 0 27 33 44 26 0 0 0 0 0 0 0 0 0 0 0 0 0 0 0 0 0 85 79 82 0 0 0 0 0 0 0 0 0 0 0 0 0 0 0
0 0 0 0 0 0 0 0 0 0 0 0 0 0 0 0 0 0 0 0 0 54 139 173 160 128 65 0 0 0 0 0 0 0 0 0 0 0 0 0 0 0
0 0 0 0 0 0 0 0 0 0 0 0 0 0 0 0 0 0 0 43 136 165 197 203 172 132 80 0 0 0 0 0 0 0 0 0 0 0 0 0 0 0

ECMWFNIL_con_mucape_006.txt.gz
CAPE
0 0 0 0 0 0 0 0 0 0 0 0 0 0 0 0 0 0 0 0 0 0 0 0 0 0 0 0 0 0 0 0 0 0 0 0 0 0 0 0 0 0
0 0 0 0 0 0 0 0 0 0 0 0 0 0 0 0 0 0 0 0 0 0 0 0 0 0 0 0 0 0 0 0 0 0 0 0 0 0 0 0 0 0
0 0 0 0 0 0 0 0 0 0 0 0 0 0 0 0 0 0 0 0 0 0 0 0 0 0 0 0 0 0 0 0 0 0 0 0 0 0 0 0 0 0
0 0 0 0 0 0 0 0 0 0 0 0 0 0 0 0 0 0 0 0 0 0 0 0 0 0 0 0 0 0 0 0 0 0 0 0 0 0 0 0 0 0
0 0 0 0 0 0 0 0 0 0 0 0 0 0 0 0 0 0 0 0 0 0 0 0 0 0 0 0 0 0 0 0 0 0 0 0 0 0 0 0 0 0
2 1 0 0 0 0 0 0 0 0 0 0 0 0 0 0 0 0 0 0 0 0 0 0 0 0 0 0 0 0 0 0 0 0 0 0 0 0 0 0 0 0
131 18 5 0 0 0 1 0 0 0 0 0 0 0 0 0 0 0 0 0 0 0 0 0 0 0 0 0 0 0 0 0 0 0 0 0 0 0 0 0 0 0
226 35 14 19 2 5 8 0 0 0 0 0 0 0 0 0 0 0 0 0 0 0 0 0 0 0 0 0 0 0 0 0 0 0 0 0 0 0 0 0 0 0
364 94 0 0 2 5 2 0 0 0 0 0 0 0 0 0 0 0 0 0 0 0 0 0 0 0 0 0 2 0 0 0 0 0 0 0 0 0 0 0 0 0
497 375 149 0 0 0 0 0 0 0 0 0 0 0 0 0 0 0 0 0 0 0 0 0 0 0 0 0 2 1 0 0 0 0 0 0 0 0 0 0 0 0
475 451 406 39 79 24 0 0 0 0 0 0 0 0 0 0 0 0 0 0 0 0 0 0 0 0 0 0 0 0 0 0 0 0 0 0 0 0 0 0 0 0
521 532 429 188 143 120 12 0 0 0 0 0 0 0 0 0 0 0 0 0 0 0 0 3 0 0 0 1 0 0 0 0 0 0 0 0 0 0 0 0 0 0
549 530 479 375 249 184 108 14 0 0 0 0 0 0 0 0 0 0 0 0 0 0 0 0 0 0 0 0 0 0 0 8 0 0 0 0 0 0 0 0 0 0
542 522 462 376 299 261 147 47 14 2 0 0 0 0 0 0 0 0 0 0 0 0 0 1 0 0 0 0 0 0 0 0 0 0 0 0 0 0 0 0 0 0
596 588 472 192 278 245 206 199 99 20 6 12 18 2 0 0 0 0 0 0 0 0 0 5 0 0 0 0 0 87 0 0 151 152 38 0 0 0 0 0 0 0
607 537 442 382 311 93 117 102 18 1 8 26 18 0 1 16 23 0 0 5 0 0 1 0 0 1 25 126 197 187 177 164 157 115 0 0 0 0 0 0 0 0
367 347 302 182 0 3 0 22 22 0 0 0 0 0 0 0 0 9 0 0 0 0 0 0 0 0 102 173 269 233 177 156 144 181 197 212 216 230 221 195 177 153
262 234 0 15 137 0 0 0 0 0 0 0 0 0 0 0 0 0 0 0 0 0 0 0 50 86 104 170 222 202 107 0 0 0 0 0 0 144 222 284 339 365
280 235 114 187 30 155 83 46 44 17 0 0 0 58 122 0 0 0 0 0 0 0 71 34 133 140 132 166 155 36 0 0 0 0 0 0 0 0 0 145 204 268
189 299 303 285 285 145 7 5 106 0 0 0 2 2 0 0 0 0 0 0 0 125 139 129 174 207 177 125 31 0 0 0 0 0 0 0 0 0 0 53 152 178
234 214 358 402 362 142 24 3 61 3 1 2 209 181 41 42 44 0 45 0 0 175 164 159 192 168 16 0 0 0 0 0 0 0 0 0 0 0 0 0 0 0
161 160 267 390 300 174 238 364 320 267 236 226 269 337 386 380 381 328 263 0 75 178 192 263 86 0 0 0 0 0 0 0 0 0 0 0 0 0 0 0 0 0
0 0 0 0 97 122 123 173 262 266 235 326 459 484 400 297 285 274 78 203 253 243 307 179 0 0 0 0 0 0 0 0 0 0 0 0 0 0 0 0 0 0
0 0 0 99 148 156 272 341 333 323 316 312 304 129 28 180 213 236 309 343 335 336 238 0 0 0 0 0 0 0 0 0 0 0 0 0 0 0 0 0 0 0
0 0 0 0 0 0 0 72 82 0 0 0 0 0 0 89 100 97 178 242 302 193 0 0 0 0 0 0 0 0 0 0 0 0 0 0 0 0 0 0 0 0
0 0 0 2 2 0 0 0 0 1 7 0 0 0 0 0 0 0 6 63 90 0 0 0 111 108 72 0 0 0 0 0 0 0 0 0 0 0 0 0 0 0

ECMWFNIL_con_mucape_009.txt.gz
CAPE
31 16 28 52 49 28 0 0 0 13 46 109 169 42 8 0 0 0 0 0 0 0 0 0 0 0 0 0 0 0 0 0 0 0 0 0 0 0 0 0 0 0
10 4 16 9 0 0 0 0 0 0 0 18 19 2 0 0 0 0 0 0 0 0 0 0 0 0 0 0 0 0 0 0 0 0 0 0 0 0 0 0 0 0
37 8 47 53 17 1 1 0 0 0 0 1 0 0 0 0 0 0 0 0 0 0 0 0 0 0 0 0 0 0 0 0 0 0 0 0 0 0 0 0 0 0
67 59 2 0 0 0 2 0 0 0 0 0 6 0 0 0 0 0 0 0 0 0 0 0 0 0 0 0 0 0 0 0 0 0 0 0 0 0 0 0 0 0
79 36 92 18 4 1 0 0 0 0 0 5 0 0 0 0 0 0 0 0 0 0 0 0 0 0 0 0 0 0 0 0 0 0 0 0 0 0 0 0 0 0
365 0 7 1 2 11 10 0 0 0 0 0 0 0 6 0 0 0 0 0 0 0 0 0 0 0 0 0 0 0 0 0 0 0 0 0 0 0 0 0 0 0
238 17 8 2 0 9 10 1 0 0 0 0 0 4 5 1 0 0 0 0 0 0 0 0 0 0 0 0 0 0 0 0 0 0 0 0 0 0 0 0 0 0
382 273 178 131 71 29 2 0 0 0 0 0 0 0 0 0 0 0 0 0 0 0 0 0 0 0 0 0 0 0 0 0 0 0 0 0 0 0 0 0 0 0
366 268 278 413 247 106 28 2 3 0 0 0 0 0 0 1 0 0 0 0 0 0 0 0 0 0 0 0 0 0 0 0 0 0 0 0 0 0 0 0 0 0
357 335 411 418 377 315 131 101 73 3 0 0 0 0 0 0 0 0 0 0 0 0 0 0 0 0 0 0 0 0 0 0 0 0 0 0 0 0 0 0 0 0
398 354 404 399 363 333 279 249 182 100 6 0 0 0 0 0 0 0 0 0 0 0 0 0 0 0 0 0 0 0 0 0 0 0 0 0 0 0 0 0 0 0
408 459 396 368 319 321 320 275 196 153 116 16 0 1 16 3 0 0 0 7 11 8 8 7 6 13 3 0 1 1 1 1 0 0 0 0 0 0 0 0 0 0
452 473 515 406 92 57 423 168 16 164 187 68 6 20 20 28 11 13 73 29 50 122 95 110 62 46 60 110 94 80 102 46 16 0 0 0 0 0 0 0 0 0
526 524 521 537 529 323 162 90 58 19 58 161 75 120 146 80 79 162 374 336 344 202 150 130 5 0 0 0 8 79 237 320 278 111 20 12 27 8 0 0 0 0
581 562 543 516 535 527 466 108 138 59 218 189 158 248 283 226 304 301 260 192 161 201 61 0 0 0 0 0 0 6 24 124 221 103 74 84 127 128 61 0 0 0
578 584 590 601 581 538 466 390 100 33 44 314 170 146 289 400 238 182 198 172 31 25 4 0 0 0 0 0 0 0 45 27 103 143 122 154 207 239 287 202 48 14
413 546 621 614 538 414 457 358 348 109 102 89 118 98 82 174 297 205 262 25 2 5 0 0 0 0 0 0 0 4 7 20 170 354 451 383 350 409 428 411 426 165
261 293 354 399 402 365 288 225 163 81 85 40 15 18 12 16 150 256 309 252 127 61 43 18 116 0 0 0 6 5 0 0 18 116 300 380 411 336 286 237 213 226
222 262 274 256 252 289 261 249 101 91 25 34 98 43 168 214 285 361 454 398 303 137 65 178 107 0 0 0 1 12 0 0 0 0 0 57 104 109 94 78 86 71
126 262 257 279 277 284 277 281 103 121 112 41 16 196 224 251 382 446 467 450 328 230 260 154 153 5 0 3 58 58 0 0 0 0 1 0 0 0 10 8 2 2
0 143 246 300 266 288 288 303 71 110 80 40 45 41 220 291 379 436 416 304 316 324 208 157 169 0 0 78 98 57 12 0 0 0 0 0 0 0 0 0 0 0
0 0 122 158 274 332 355 362 303 21 25 25 16 10 190 225 353 412 336 246 287 300 259 227 30 0 90 111 97 74 0 0 0 0 0 0 0 0 0 0 0 0
0 0 0 3 204 388 432 415 324 249 167 127 19 11 10 196 293 185 158 239 246 285 367 179 29 109 167 142 0 0 0 0 0 0 0 0 0 0 0 0 0 0
0 0 0 0 0 131 397 430 316 218 222 217 19 34 38 56 126 214 310 316 298 240 292 186 169 168 96 0 0 0 0 0 0 0 0 0 0 0 0 0 0 0
0 0 0 0 0 56 136 146 86 98 188 219 203 45 40 34 68 215 387 330 61 0 7 262 151 16 0 0 0 0 0 0 0 0 0 0 0 0 0 0 0 0
0 0 0 0 0 0 0 218 344 361 364 332 274 225 274 374 455 288 271 180 6 22 268 57 0 0 0 0 0 0 0 0 0 0 0 0 0 0 0 0 0 0

ECMWFNIL_con_mucape_012.txt.gz
CAPE
747 680 357 245 89 21 4 0 0 0 5 14 8 0 0 0 0 6 9 6 0 0 9 42 46 16 0 5 13 2 14 78 34 17 0 0 2 2 0 0 0 0
912 896 382 338 118 118 136 72 1 0 3 10 1 0 0 0 24 6 0 0 0 0 0 0 0 0 0 0 0 0 0 0 0 0 0 0 0 0 0 0 0 0
657 494 339 24 70 132 134 210 96 27 1 0 0 0 0 0 0 0 0 0 0 0 0 0 0 0 0 0 0 0 0 0 0 0 0 0 0 0 0 0 0 0
515 270 309 382 13 204 244 94 44 6 182 0 0 0 0 0 0 0 0 0 0 0 0 0 0 0 0 0 0 0 0 0 0 0 0 0 0 0 0 0 0 0
474 290 202 237 360 304 208 218 45 2 6 27 15 0 0 0 0 0 0 0 0 0 0 0 0 0 0 0 0 0 0 0 0 0 0 0 0 0 0 0 0 0
309 252 179 7 147 173 365 294 46 5 11 14 6 1 0 0 0 0 0 0 0 0 0 0 0 0 0 0 0 0 0 0 0 0 0 0 0 0 0 0 0 0
482 402 240 142 169 509 108 184 121 25 15 5 1 6 0 0 0 0 0 0 0 0 0 0 0 0 0 0 0 0 0 0 0 0 0 0 0 0 0 0 0 0
573 428 263 187 109 358 333 330 238 185 125 67 28 8 15 0 0 0 0 0 0 0 0 0 0 0 0 0 0 0 0 0 0 0 0 0 0 0 0 0 0 0
513 396 264 156 88 222 634 509 366 471 200 120 41 27 1 1 0 0 0 0 0 0 0 0 0 0 0 0 0 0 0 0 0 0 0 0 0 0 0 0 0 0
807 486 504 408 279 225 568 749 513 515 323 289 117 103 1 24 95 0 0 0 0 0 0 0 0 0 0 0 0 0 1 0 0 0 0 0 0 0 0 0 0 0
889 650 596 535 480 327 749 791 800 590 427 340 332 289 70 46 43 3 0 0 1 0 0 0 0 0 0 0 0 0 0 0 0 0 4 0 0 0 0 0 0 0
878 793 658 727 661 641 1015 1006 780 682 711 528 422 422 322 220 28 11 2 3 4 0 0 0 0 1 1 10 50 77 126 139 119 76 33 3 2 3 0 0 0 0
934 658 654 816 928 744 801 818 704 643 700 675 526 529 575 487 246 111 15 7 5 8 8 5 30 120 315 312 358 538 618 520 575 450 276 206 72 40 31 25 26 11
953 915 627 647 713 742 773 746 645 676 676 675 652 580 641 580 474 287 158 88 117 108 185 425 417 304 244 190 276 413 485 501 544 575 671 756 513 301 162 102 80 56
1047 980 849 600 558 738 827 814 764 822 723 577 608 618 658 656 558 432 392 269 386 563 604 361 321 249 169 230 284 302 223 312 436 488 576 561 673 638 631 456 351 166
1120 1141 1094 979 813 736 822 949 726 500 656 103 622 490 628 646 600 550 474 614 586 526 414 504 493 346 21 0 2 133 219 88 212 397 476 553 588 450 314 411 390 414
1036 1194 1270 1303 1166 973 584 564 777 980 946 422 310 425 613 592 595 627 535 495 474 566 511 408 184 146 0 0 0 0 20 197 379 413 380 468 411 76 510 586 690 734
838 908 984 1103 1163 1151 1096 967 954 919 971 908 857 600 455 725 715 588 571 490 364 322 686 884 427 5 0 0 0 0 0 156 407 335 197 249 335 280 169 110 168 304
704 736 860 855 907 919 932 918 853 923 948 984 1059 925 879 712 588 603 110 294 232 78 192 445 428 0 0 0 0 0 0 21 84 86 47 24 18 147 183 124 172 204
282 576 758 880 922 870 752 780 807 806 902 953 1060 994 799 532 360 81 60 149 161 184 265 464 465 143 1 0 0 0 0 17 75 6 22 102 290 160 203 275 146 196
0 122 561 640 741 883 796 627 795 850 943 995 948 890 762 615 572 132 44 26 305 403 439 466 672 403 0 0 0 0 0 1 1 76 99 87 76 84 128 84 74 83
0 0 2 240 513 733 778 759 755 841 956 1100 1000 807 685 646 524 507 459 340 122 790 757 552 1411 179 0 0 0 0 0 4 86 45 0 9 27 55 26 22 16 26
0 0 0 0 11 383 634 872 889 876 1018 1086 1057 872 696 603 675 592 706 848 794 765 694 588 774 0 0 0 0 0 0 4 29 0 1 5 6 7 2 0 0 0
0 0 0 0 0 4 185 593 892 1085 1197 1104 1010 961 824 752 795 699 700 785 702 542 517 656 430 210 0 0 0 0 6 10 2 0 0 0 0 0 0 0 0 0
0 0 0 0 0 0 48 131 487 1031 1228 1156 1068 960 844 839 698 811 713 639 503 502 9 207 8 85 0 35 0 104 75 3 0 1 0 0 0 0 0 0 0 0
0 0 0 0 0 0 0 80 144 422 713 1016 1132 1005 913 800 660 654 690 546 489 379 38 25 15 9 6 97 16 13 180 150 6 5 1 0 0 0 0 0 0 0